Chattanooga, TN

2:38 AM EDT on May 26, 2018 (GMT -0400)
Lovell

Weather History for KCHA - September, 2012

Change the Weather History Date:

Wednesday, September 12, 2012

  Actual Average Record
Temperature  
Mean Temperature 72 °F 74 °F  
Max Temperature 83 °F 85 °F 96 °F (1962)
Min Temperature 61 °F 63 °F 40 °F (1940)
Degree Days  
Heating Degree Days 0 0  
Month to date heating degree days 0 0  
Since 1 July heating degree days 0 0  
Cooling Degree Days 7 9  
Month to date cooling degree days 130 128  
Year to date cooling degree days 1915 1578  
Growing Degree Days 22 (Base 50)    
Moisture  
Dew Point 59 °F    
Average Humidity 65    
Maximum Humidity 93    
Minimum Humidity 37    
Precipitation  
Precipitation 0.00 in 0.14 in 2.00 in (1965)
Month to date precipitation 1.53 1.54  
Year to date precipitation 32.56 36.80  
Snow  
Snow 0.00 in 0.00 in - ()
Month to date snowfall 0.0 0.0  
Since 1 July snowfall 0.0 0.0  
Since 1 September snowfall 0.0 0.0  
Snow Depth 0.00 in    
Sea Level Pressure  
Sea Level Pressure 30.26 in    
Wind  
Wind Speed 2 mph (SSE)    
Max Wind Speed 10 mph    
Max Gust Speed 14 mph    
Visibility 10 miles    
Events      
T = Trace of Precipitation, MM = Missing Value Source: NWS Daily Summary

Daily Weather History Graph

Daily Weather History Graph

Search for Another Location

Airport or City:

Astronomy

Sep. 12, 2012 Rise Set
Actual Time 7:21 AM EDT 7:51 PM EDT
Civil Twilight 6:56 AM EDT 8:16 PM EDT
Nautical Twilight 6:26 AM EDT 8:46 PM EDT
Astronomical Twilight 5:55 AM EDT 9:16 PM EDT
Moon 3:44 AM EDT (9/12) 5:33 PM EDT (9/12)
Length of Visible Light 13h 20m
Length of Day
12h 29m
Waning Crescent, 14% of the Moon is Illuminated
Sep 12
Waning Crescent
Sep 15
New
Sep 22
First Quarter
Sep 29
Full
Oct 8
Last Quarter

Hourly Weather History & Observations

Time (EDT) Temp. Heat Index Dew Point Humidity Pressure Visibility Wind Dir Wind Speed Gust Speed Precip Events Conditions
12:53 AM 66.0 °F - 60.1 °F 81% 30.25 in 10.0 mi Calm Calm - N/A   Mostly Cloudy
1:53 AM 64.9 °F - 60.1 °F 84% 30.25 in 10.0 mi Calm Calm - N/A   Mostly Cloudy
2:53 AM 64.0 °F - 60.1 °F 87% 30.24 in 10.0 mi Calm Calm - N/A   Mostly Cloudy
3:53 AM 64.0 °F - 60.1 °F 87% 30.24 in 10.0 mi Calm Calm - N/A   Mostly Cloudy
4:53 AM 63.0 °F - 60.1 °F 90% 30.24 in 10.0 mi Calm Calm - N/A   Mostly Cloudy
5:53 AM 63.0 °F - 59.0 °F 87% 30.25 in 10.0 mi Calm Calm - N/A   Partly Cloudy
6:53 AM 62.1 °F - 57.9 °F 86% 30.27 in 10.0 mi Calm Calm - N/A   Mostly Cloudy
7:53 AM 63.0 °F - 60.1 °F 90% 30.30 in 10.0 mi Calm Calm - N/A   Overcast
8:53 AM 66.0 °F - 61.0 °F 84% 30.31 in 10.0 mi Calm Calm - N/A   Mostly Cloudy
9:53 AM 69.1 °F - 62.1 °F 78% 30.32 in 10.0 mi Calm Calm - N/A   Mostly Cloudy
10:53 AM 73.0 °F - 60.1 °F 64% 30.34 in 10.0 mi South 5.8 mph - N/A   Mostly Cloudy
11:53 AM 77.0 °F - 57.0 °F 50% 30.33 in 10.0 mi SSW 9.2 mph - N/A   Mostly Cloudy
12:53 PM 80.1 °F 80.4 °F 57.0 °F 45% 30.31 in 10.0 mi SE 4.6 mph - N/A   Scattered Clouds
1:53 PM 79.0 °F - 55.9 °F 45% 30.29 in 10.0 mi SSW 5.8 mph - N/A   Mostly Cloudy
2:53 PM 82.0 °F 81.7 °F 57.0 °F 42% 30.25 in 10.0 mi SSW 5.8 mph - N/A   Mostly Cloudy
3:53 PM 81.0 °F 80.5 °F 54.0 °F 39% 30.23 in 10.0 mi Variable 3.5 mph - N/A   Mostly Cloudy
4:53 PM 82.9 °F 81.9 °F 54.0 °F 37% 30.22 in 10.0 mi Variable 3.5 mph - N/A   Mostly Cloudy
5:53 PM 81.0 °F 80.7 °F 55.0 °F 41% 30.21 in 10.0 mi SSE 4.6 mph - N/A   Mostly Cloudy
6:53 PM 80.1 °F 80.1 °F 55.0 °F 42% 30.21 in 10.0 mi SE 4.6 mph - N/A   Mostly Cloudy
7:53 PM 77.0 °F - 57.0 °F 50% 30.21 in 10.0 mi SE 3.5 mph - N/A   Mostly Cloudy
8:53 PM 73.4 °F - 59.0 °F 61% 30.24 in 10.0 mi Calm Calm - N/A   Mostly Cloudy
9:53 PM 71.1 °F - 61.0 °F 70% 30.24 in 10.0 mi Calm Calm - N/A   Mostly Cloudy
10:53 PM 69.1 °F - 62.1 °F 78% 30.25 in 10.0 mi Calm Calm - N/A   Mostly Cloudy
11:53 PM 68.0 °F - 61.0 °F 78% 30.26 in 10.0 mi Calm Calm - N/A   Mostly Cloudy